Regional Weather Roundup
Issued by NWS Mobile, AL

Home | Current Version | Previous Version | Text Only | Print | Product List | Glossary On
Versions: 1 2 3 4 5 6 7 8 9 10 11 12 13 14 15 16 17 18 19 20 21 22 23 24 25 26 27 28 29 30 31 32 33 34 35 36 37 38 39 40 41 42 43 44 45 46 47 48 49 50
000
ASUS44 KMOB 282312
RWRMOB
REGIONAL WEATHER ROUNDUP
NATIONAL WEATHER SERVICE MOBILE AL
600 PM CDT THU MAY 28 2015

ALZ061>064-290000-
COASTAL ALABAMA


CITY           SKY/WX    TMP DP  RH WIND       PRES   REMARKS
MOBILE REG APT CLOUDY    73  70  90 E3        30.09F THUNDER
BROOKLEY FIELD PTSUNNY   79  72  79 S3        30.10S
GULF SHORES    PTCLDY    78  70  76 CALM      30.09R

$$

ALZ051>060-290000-
INTERIOR SOUTHWEST AND SOUTH CENTRAL ALABAMA


CITY           SKY/WX    TMP DP  RH WIND       PRES   REMARKS
ANDALUSIA/OPP  TSTM      74  69  85 CALM      30.13S
EVERGREEN      LGT RAIN  73  68  84 SE3       30.12F
FLORALA        LGT RAIN  71  69  93 N3        30.13F FOG
GREENVILLE     TSTM      71  68  90 SW3       30.15R FOG

$$

FLZ001>006-290000-
WESTERN FLORIDA PANHANDLE


CITY           SKY/WX    TMP DP  RH WIND       PRES   REMARKS
CRESTVIEW      LGT RAIN  71  70  96 VRB3      30.12F FOG
DESTIN         RAIN      75  72  90 SE9       30.10F FOG
DUKE FIELD     PTSUNNY   72  71  94 NE5       30.10F
MARY ESTHER    NOT AVBL
MILTON         MOCLDY    78  70  76 SE7       30.10S
PENSACOLA      MOSUNNY   80  71  74 S10       30.09S
NAS PENSACOLA  PTSUNNY   80  71  74 VRB6      30.08S
VALPARAISO     LGT RAIN  75  72  88 SE7       30.10S

$$

...MARINE OBSERVATIONS...

STATION/POSITION TIME  SKY/WX   TEMP    WIND        PRES    VSBY
                                AIR SEA DIR/SP/G
                 (UTC)          (F)     (DEG/KT/KT) (MB)    (MI)
PASCAGOULA       2200            79     150/  8/ 11 1018.4R
PETIT BOIS ISL   2200            79     160/  7/ 10 1018.7F
E DAUPHIN ISLAND 2200            79     170/  8/  8 1018.2F
MIDDLE BAY LIGHT 2200            77     170/  9     1018.3S
USCG MOBILE BAY  2200            79 80  150/  6/  9 1017.9S
STATE DOCKS      2200            79 79              1018.7F
MEAHER PARK      2200            79     180/  9     1018.3S
FORT MORGAN      2200            78     190/  8/  9 1018.2F
12 S ORANGE BCH  2250            80 80  340/  2/  4 1018.2S
WVE H/P(F/S)=  2/ 8

PENSACOLA BAY    2200            84 82  210/  2/  5 1019.1F
64 S DAUPHIN ISL 2250            78 80  180/  2/  4 1018.8F
WVE H/P(F/S)=  2/ 6

67 S FORT MORGAN 2230            77        CALM     1018.6S
115 SE PENSACOLA 2250            80 81  130/ 12/ 12 1018.9F
WVE H/P(F/S)=  3/ 5

MID GULF/42001   2250            82 82   90/  8/ 10 1017.4F
WVE H/P(F/S)=  3/ 7

EAST GULF/42003  2250            80 82   90/ 14/ 16 1017.2R
WVE H/P(F/S)=  4/ 6


$$

...NEARBY LOCATIONS

CITY           SKY/WX    TMP DP  RH WIND       PRES   REMARKS
GULFPORT       CLOUDY    81  70  69 SE13      30.07R
BILOXI         CLOUDY    81  71  71 S10       30.07R
PASCAGOULA     CLOUDY    80  72  76 S6        30.07S
HATTIESBURG    LGT RAIN  81  71  71 S7        30.07S
LAUREL         MOSUNNY   82  70  65 SE12      30.08S
MERIDIAN       PTSUNNY   82  69  64 SE5       30.06S
MERIDIAN NAS   MOSUNNY   84  68  58 S3        30.07S
MONTGOMERY     RAIN      73  68  83 S8        30.15R
MAXWELL AFB    LGT RAIN  72  70  93 W1        30.13R
TROY           TSTM      71  69  93 CALM      30.15R FOG
FORT RUCKER    LGT RAIN  71  68  90 CALM      30.12R FOG
DALEVILLE      LGT RAIN  70  68  94 W3        30.12S
DOTHAN         CLOUDY    73  68  84 SW8       30.15S

$$

...OTHER SURROUNDING LOCATIONS...

CITY           SKY/WX    TMP DP  RH WIND       PRES   REMARKS
BIRMINGHAM     CLOUDY    72  70  93 E3        30.14F
TUSCALOOSA     SUNNY     80  66  62 VRB3      30.08F
COLUMBUS GA    CLOUDY    81  63  54 SE7       30.10R
PANAMA CITY    NOT AVBL
TALLAHASSEE    PTSUNNY   87  67  51 SW12      30.09R
BATON ROUGE    PTSUNNY   87  69  54 NE3       30.03S
NEW ORLEANS    MOSUNNY   87  67  51 E7        30.04S
SLIDELL        MOSUNNY   87  69  54 S6        30.04S
JACKSON        MOSUNNY   88  64  44 CALM      30.05F
MCCOMB         SUNNY     88  66  48 N3        30.05S

$$

...SURROUNDING MARINE OBSERVATIONS...

STATION/POSITION TIME  SKY/WX   TEMP    WIND        PRES    VSBY
                                AIR SEA DIR/SP/G
                 (UTC)          (F)     (DEG/KT/KT) (MB)    (MI)
WAVELAND         2200            81 83  160/  6/  8 1018.0R
PASCAGOULA RGN A 2200            81     150/  9/ 12 1018.1R
PASCAGOULA PORT  2200               83                N/A
GRAND ISLE       2200            83 82  170/  4/  9 1017.5F
SOUTHWEST PASS   2300            79     140/ 10/ 11 1018.2R
PILOT STATION E  2200            76 76  160/  9/ 12 1018.3F
SHELL BEACH      2200            80 82  120/  7/  8 1017.3F
PANAMA CITY      2200            74 82  110/  4/  5 1018.5F
APALACHICOLA     2200            80 82  180/  7/ 10 1019.1F
TYNDALL TOWER C  2300            78     160/  6/  6 1019.0F
S APLCHCLA/42036 2250            80 81   60/  2/  4 1018.9F
WVE H/P(F/S)=  3/ 6


$$



USA.gov is the U.S. government's official web portal to all federal, state and local government web resources and services.